KCOQ

Details ICAO KCOQ
Name CLOQUET CARLTON CO
Region United States
Timezone America/Chicago (UTC-5.0)
Plans Departing 1
Arriving 2
Stats Elevation 1,279 ft / 390 m (AMSL)
Location 46.701275° -92.503325°
Runways 2
Magnetic Variation 0.669° W
Sunrise 2018-05-21 10:30:21 UTC / 2018-05-21 05:30:21 Local
Sunset 2018-05-22 01:45:45 UTC / 2018-05-21 20:45:45 Local
Advertisement - Login to hide

Runways

ID Width Length Bearing (true) Bearing (mag) Surface Threshold Offset Overrun Length
07 75 ft / 23 m 3,093 ft / 943 m 72.84° 73.51° Asphalt 0 ft / 0 m 0 ft / 0 m
17 75 ft / 23 m 4,005 ft / 1,221 m 179.19° 179.86° Asphalt 0 ft / 0 m 0 ft / 0 m
25 75 ft / 23 m 3,093 ft / 943 m 252.85° 253.52° Asphalt 0 ft / 0 m 0 ft / 0 m
35 75 ft / 23 m 4,005 ft / 1,221 m 359.19° 359.86° Asphalt 0 ft / 0 m 0 ft / 0 m

Map

Weather


0- 5 10 15 20 25 30 35+ Temperature / ° C

Clouds and Precipitation
Forecast for 2018-05-22 00:00 UTC. Updated an hour ago

Ground ~20,000 ft ~40,000 ft Winds

METAR

KCOQ 220035Z AUTO 00000KT 10SM BKN100 14/06 A3002 RMK AO2

TAF

Not found

Frequencies

Recorded 118.52 MHz AWOS 3
Clearance 122.15 MHz DULUTH CLNC DEL
Unicom 122.80 MHz CTAF/UNICOM
Approach 125.45 MHz DULUTH APP/DEP
Warning: Do not use this data for real-world aviation or navigation. No guarantee of current accuracy is given.